User: anonymous   Login
Location: Unspecified
(0.0000°N, 0.0000°E)
Time: 07:56:43
(UTC+00:00)
Language:

COSMOS-2408 - Orbit

View from above orbital plane
View from above orbital plane
View from above satellite
View from above satellite

Ground track
Ground track

The orbit data is extracted from the following two-line orbital elements,

1 28419U 04037A   24104.82879707  .00000020  00000-0  69125-4 0  9996
2 28419  82.4791 103.4855 0015416 205.6072 154.4247 12.45651107889006
Epoch (UTC): 13 April 2024 19:53:28
Eccentricity: 0.0015416
inclination: 82.4791°
perigee height: 1470 km
apogee height: 1495 km
right ascension of ascending node: 103.4855°
argument of perigee: 205.6072°
revolutions per day: 12.45651107
mean anomaly at epoch: 154.4247°
orbit number at epoch: 88900

The dashed part of the orbit path shows where the satellite is in the earth's shadow,  

DLR